Regional Weather Roundup
Issued by NWS

Home | Current Version | Previous Version | Graphics & Text | Print | Product List | Glossary On
Versions: 1 2 3 4 5 6 7 8 9 10 11 12 13 14 15 16 17 18 19 20 21 22 23 24 25 26 27 28 29 30 31 32 33 34 35 36 37 38 39 40 41 42 43 44 45 46 47 48 49 50
000
ASUS43 KIND 300559
RWRIN

WEATHER ROUNDUP FOR INDIANA
NATIONAL WEATHER SERVICE INDIANAPOLIS IN
200 AM EDT THU MAR 30 2017

NOTE: "FAIR" INDICATES FEW OR NO CLOUDS BELOW 12,000 FEET WITH NO
SIGNIFICANT WEATHER AND/OR OBSTRUCTIONS TO VISIBILITY.

* - STATION DOES NOT REPORT WEATHER SUCH AS PRECIPITATION OR FOG.

+ - STATION NOT QUALITY CONTROLLED BY THE NATIONAL WEATHER SERVICE.
    USE DATA WITH CAUTION...ESPECIALLY DEWPOINT AND RELATIVE
    HUMIDITY OBSERVATIONS.

INZ001>003-010>013-019-020-300700-
NORTHWEST INDIANA

CITY           SKY/WX    TMP DP  RH WIND       PRES   REMARKS
KNOX *+        CLOUDY    45  19  36 E23G31    29.96F
MONTICELLO +   MOCLDY    46  37  71 E13G20    29.92F
6HR MIN TEMP:  46; 6HR MAX TEMP:  54; 6HR PCP:  0.02;


$$

LMZ046-743>745-300700-
SOUTHERN LAKE MICHIGAN

STATION/POSITION TIME  TEMP    WIND        PRES    WAVE
                       AIR SEA DIR/SP/G            HT
                 (UTC) (F)     (DEG/KT/KT) (MB)    (FT)
BURNS HARBOR     0540   48      90/ 17/ 23 1014.6F
MICHIGAN CITY    0530   47      60/ 16/ 19   N/A

$$

INZ004-005-014>016-021>024-300700-
NORTH CENTRAL INDIANA

CITY           SKY/WX    TMP DP  RH WIND       PRES   REMARKS
GOSHEN         CLOUDY    46  34  62 E20G25    30.03F
6HR MIN TEMP:  46; 6HR MAX TEMP:  50; 6HR PCP: TRACE;

SOUTH BEND     CLOUDY    46  35  65 E14       30.00F
6HR MIN TEMP:  46; 6HR MAX TEMP:  51; 6HR PCP:  0.02;


$$

INZ006>009-017-018-025>027-300700-
NORTHEAST INDIANA

CITY           SKY/WX    TMP DP  RH WIND       PRES   REMARKS
ANGOLA *+      CLOUDY    43  30  61 E13       30.07S
FORT WAYNE     RAIN      43  37  79 E16       30.05F
6HR MIN TEMP:  43; 6HR MAX TEMP:  50; 6HR PCP:  0.10;

KENDALLVILLE + LGT RAIN  44  35  71 E14       30.07F

$$

INZ028-029-035-036-043>045-051>053-300700-
WEST CENTRAL INDIANA

CITY           SKY/WX    TMP DP  RH WIND       PRES   REMARKS
CRAWFORDSVL +  CLOUDY    51  45  78 E21       29.87F
6HR MIN TEMP:  51; 6HR MAX TEMP:  55; 6HR PCP:  0.01;

GREENCASTLE +  MOCLDY    52  43  71 E14       29.87F
LAFAYETTE      LGT RAIN  47  42  83 E20       29.89F
6HR MIN TEMP:  47; 6HR MAX TEMP:  55; 6HR PCP:  0.05;

TERRE HAUTE    PTCLDY    55  46  71 SE14G22   29.83F
6HR MIN TEMP:  55; 6HR MAX TEMP:  57;


$$

INZ030>032-037>040-046>048-054>057-064-065-300700-
CENTRAL INDIANA

CITY           SKY/WX    TMP DP  RH WIND       PRES   REMARKS
GREENWOOD *+   CLOUDY    55  44  67 SE10G18   29.92F
INDIANAPOLIS   CLOUDY    55  42  61 E14       29.90F
6HR MIN TEMP:  54; 6HR MAX TEMP:  58;

-EAGLE CREEK   CLOUDY    55  42  61 E10       29.91F
6HR MIN TEMP:  55; 6HR MAX TEMP:  59;

KOKOMO +       CLOUDY    45  38  76 E18       29.96F
6HR MIN TEMP:  45; 6HR MAX TEMP:  53; 6HR PCP:  0.01;

SHELBYVILLE    MOCLDY    55  41  59 E18       29.91F
6HR MIN TEMP:  54; 6HR MAX TEMP:  58;


$$

INZ033-034-041-042-049-050-058-059-300700-
EAST CENTRAL INDIANA

CITY           SKY/WX    TMP DP  RH WIND       PRES   REMARKS
MUNCIE         LGT RAIN  49  40  71 E13       29.97F
6HR MIN TEMP:  49; 6HR MAX TEMP:  55; 6HR PCP: TRACE;

RICHMOND +     CLOUDY    46  41  81 E12       29.97F

$$

INZ060-061-067>069-081>083-085>088-300700-
SOUTHWEST INDIANA

CITY           SKY/WX    TMP DP  RH WIND       PRES   REMARKS
EVANSVILLE     PTCLDY    60  51  72 E7        29.82F
6HR MIN TEMP:  60; 6HR MAX TEMP:  66;

HUNTINGBURG *+ MOCLDY    60  50  69 SE10      29.86F
6HR MIN TEMP:  59; 6HR MAX TEMP:  64;


$$

INZ062-063-066-070>080-084-089>092-300700-
SOUTH CENTRAL AND SOUTHEAST INDIANA

CITY           SKY/WX    TMP DP  RH WIND       PRES   REMARKS
BLOOMINGTON    CLOUDY    55  45  68 SE16      29.86F
6HR MIN TEMP:  54; 6HR MAX TEMP:  59;

MADISON *+     CLOUDY    52  43  71 E10G17    29.94F
SEYMOUR +      CLOUDY    55  45  67 SE7       29.91F

$$





USA.gov is the U.S. government's official web portal to all federal, state and local government web resources and services.